Weather History for KLSV - August, 2014

Change the Weather History Date:

Saturday, August 9, 2014

  Actual Average Record
Temperature  
Mean Temperature 90 °F -  
Max Temperature 101 °F 102 °F 111 °F (2004)
Min Temperature 78 °F 77 °F 68 °F (2011)
Cooling Degree Days 24    
Growing Degree Days 40 (Base 50)    
Moisture  
Dew Point 47 °F    
Average Humidity 22    
Maximum Humidity 31    
Minimum Humidity 15    
Precipitation  
Precipitation 0.00 in - - ()
Sea Level Pressure  
Sea Level Pressure 29.83 in    
Wind  
Wind Speed 6 mph (SSE)    
Max Wind Speed 14 mph    
Max Gust Speed 24 mph    
Visibility 10 miles    
Events      
Averages and records for this station are not official NWS values.
T = Trace of Precipitation, MM = Missing Value Source: NWS Daily Summary

Daily Weather History Graph

Daily Weather History Graph

Search for Another Location

Airport or City:

Trip Planner

Search our weather history database for the weather conditions in past years. The results will help you decide how hot, cold, wet, or windy it might be!

Date:

Astronomy

Aug. 09, 2014 Rise Set
Actual Time 5:53 AM PDT 7:37 PM PDT
Civil Twilight 5:25 AM PDT 8:04 PM PDT
Nautical Twilight 4:52 AM PDT 8:38 PM PDT
Astronomical Twilight 4:16 AM PDT 9:13 PM PDT
Moon 6:43 PM PDT (8/9) 4:39 AM PDT (8/9)
Length of Visible Light 14h 39m
Length of Day
13h 43m
Waxing Gibbous, 99% of the Moon is Illuminated
Aug 9
Waxing Gibbous
Aug 10
Full
Aug 17
Last Quarter
Aug 25
New
Sep 2
First Quarter

Hourly Weather History & Observations

Time (PDT) Temp. Dew Point Humidity Pressure Visibility Wind Dir Wind Speed Gust Speed Precip Events Conditions
12:58 AM 88.7 °F 39.2 °F 18% 29.81 in 10.0 mi SSW 9.2 mph - N/A   Clear
1:58 AM 84.6 °F 40.8 °F 21% 29.82 in 10.0 mi Calm Calm - N/A   Clear
2:58 AM 82.0 °F 42.8 °F 25% 29.82 in 10.0 mi NNE 5.8 mph - N/A   Clear
3:58 AM 78.8 °F 44.1 °F 29% 29.83 in 10.0 mi NNE 5.8 mph - N/A   Clear
4:58 AM 81.1 °F 44.4 °F 27% 29.84 in 10.0 mi Calm Calm - N/A   Clear
5:58 AM 79.7 °F 45.3 °F 30% 29.87 in 10.0 mi North 5.8 mph - N/A   Clear
6:58 AM 80.4 °F 47.5 °F 31% 29.90 in 10.0 mi North 5.8 mph - N/A   Clear
7:58 AM 84.6 °F 48.0 °F 28% 29.90 in 10.0 mi ENE 3.5 mph - N/A   Clear
8:58 AM 88.9 °F 48.4 °F 25% 29.90 in 10.0 mi Calm Calm - N/A   Clear
9:58 AM 91.0 °F 48.9 °F 23% 29.91 in 10.0 mi SW 2.3 mph - N/A   Clear
10:58 AM 92.8 °F 50.5 °F 24% 29.91 in 10.0 mi Calm Calm - N/A   Clear
11:58 AM 94.5 °F 50.7 °F 23% 29.89 in 10.0 mi NW 5.8 mph - N/A   Clear
12:58 PM 97.2 °F 50.2 °F 20% 29.88 in 10.0 mi Variable 4.6 mph - N/A   Clear
1:58 PM 98.6 °F 50.2 °F 19% 29.85 in 10.0 mi Variable 5.8 mph - N/A   Clear
2:58 PM 99.9 °F 48.4 °F 17% 29.82 in 10.0 mi Variable 4.6 mph - N/A   Clear
3:58 PM 101.1 °F 46.2 °F 16% 29.79 in 10.0 mi South 3.5 mph - N/A   Clear
4:58 PM 100.8 °F 45.9 °F 15% 29.77 in 10.0 mi South 3.5 mph - N/A   Clear
5:58 PM 99.7 °F 48.0 °F 17% 29.76 in 10.0 mi SSE 13.8 mph 24.2 mph N/A   Clear
6:58 PM 99.5 °F 46.6 °F 17% 29.76 in 10.0 mi SSE 9.2 mph - N/A   Clear
7:58 PM 97.9 °F 46.8 °F 17% 29.77 in 10.0 mi SE 9.2 mph - N/A   Clear
8:58 PM 96.3 °F 48.4 °F 20% 29.79 in 10.0 mi ESE 12.7 mph - N/A   Clear
9:58 PM 95.2 °F 47.5 °F 20% 29.80 in 10.0 mi South 13.8 mph - N/A   Clear
10:58 PM 91.8 °F 47.7 °F 22% 29.81 in 10.0 mi South 10.4 mph - N/A   Clear
11:58 PM 89.8 °F 46.8 °F 23% 29.83 in 10.0 mi South 6.9 mph - N/A   Clear